Regional Weather Roundup
Issued by NWS

Home | Current Version | Previous Version | Text Only | Print | Product List | Glossary Off
Versions: 1 2 3 4 5 6 7 8 9 10 11 12 13 14 15 16 17 18 19 20 21 22 23 24 25 26 27 28 29 30 31 32 33 34 35 36 37 38 39 40 41 42 43 44 45 46 47 48 49 50

000
ASUS45 KPSR 280010
RWRAZ

ARIZONA REGIONAL HOURLY WEATHER ROUNDUP
NATIONAL WEATHER SERVICE PHOENIX AZ
500 PM MST SUN JUL 27 2014

NOTE: FAIR INDICATES FEW OR NO CLOUDS BELOW 12,000 FEET WITH NO
SIGNIFICANT WEATHER AND/OR OBSTRUCTIONS TO VISIBILITY.

AZZ001>003-036-280100-
NORTHWEST ARIZONA

CITY           SKY/WX    TMP DP  RH WIND       PRES   REMARKS
BULLHEAD CITY  MOSUNNY  102  55  21 S14       29.83F HX 101
KINGMAN        MOSUNNY   93  51  23 SW15G24   30.05F
6HR MIN TEMP:  87; 6HR MAX TEMP:  95;

$$

AZZ004>008-015-016-018-280100-
NORTH CENTRAL ARIZONA

CITY           SKY/WX    TMP DP  RH WIND       PRES   REMARKS
GRAND CANYON   MOSUNNY   83  50  31 NW10G17   30.28S THUNDER
6HR MIN TEMP:  72; 6HR MAX TEMP:  85; 6HR PCP: TRACE;

WILLIAMS       MOSUNNY   84  43  23 SW13      30.34S
PRESCOTT       MOSUNNY   88  52  29 SW13G21   30.15S
6HR MIN TEMP:  78; 6HR MAX TEMP:  90;

FLAGSTAFF      MOSUNNY   75  49  39 N5        30.32R
6HR MIN TEMP:  65; 6HR MAX TEMP:  84; 6HR PCP:  0.05;

PAYSON         MOSUNNY   90  52  27 W13       30.18R
PAGE           MOSUNNY   94  49  21 SE5       30.06F
6HR MIN TEMP:  83; 6HR MAX TEMP: 100; 6HR PCP:  0.05;

$$

AZZ009>014-017-280100-
NORTHEAST ARIZONA

CITY           SKY/WX    TMP DP  RH WIND       PRES   REMARKS
WINSLOW        PTSUNNY   95  44  17 SE21G36   30.13R
6HR MIN TEMP:  81; 6HR MAX TEMP:  97;

SAINT JOHNS    CLOUDY    78  48  34 S5        30.21S
6HR MIN TEMP:  72; 6HR MAX TEMP:  87; 6HR PCP:  0.01;

WINDOW ROCK    CLOUDY    80  47  31 SW7       30.33R
6HR MIN TEMP:  80; 6HR MAX TEMP:  90;

SHOW LOW       CLOUDY    59  54  82 S15       30.35F
$$

AZZ023-280100-
GREATER PHOENIX AREA

CITY           SKY/WX    TMP DP  RH WIND       PRES   REMARKS
PHOENIX        MOSUNNY  102  54  20 W12G21    29.85S HX 100
6HR MIN TEMP:  91; 6HR MAX TEMP: 104;

BUCKEYE          N/A    100  54  20 SW9       29.87S
GLENDALE       MOSUNNY  102  57  22 S13G22    29.86F HX 101
LUKE AFB       NOT AVBL
6HR MIN TEMP:  89; 6HR MAX TEMP: 102;

DEER VALLEY    SUNNY     99  55  23 SW14G20   29.87R
6HR MIN TEMP:  91; 6HR MAX TEMP: 101;

SCOTTSDALE     SUNNY    100  57  23 W9        29.89R
6HR MIN TEMP:  92; 6HR MAX TEMP: 101;

MESA-FALCON    MOSUNNY  100  54  20 W9        29.87S
MESA-GATEWAY   MOSUNNY  100  55  22 NW9       29.89S
$$

AZZ027-028-280100-
SOUTHWEST MARICOPA COUNTY AND PINAL COUNTY

CITY           SKY/WX    TMP DP  RH WIND       PRES   REMARKS
CASA GRANDE    SUNNY    100  57  23 CALM      29.90S
6HR MIN TEMP:  91; 6HR MAX TEMP: 100;

$$

AZZ503-504-507>509-280100-
SOUTHEAST ARIZONA

CITY           SKY/WX    TMP DP  RH WIND       PRES   REMARKS
TUCSON         PTSUNNY   98  55  23 W3        29.99F
6HR MIN TEMP:  93; 6HR MAX TEMP:  99;

DAVIS-MONTHAN  SUNNY     95  56  26 W9        29.98F
6HR MIN TEMP:  92; 6HR MAX TEMP:  97;

RYAN FIELD       N/A     99  55  23 NW12      29.98S
NOGALES        MOSUNNY   91  58  32 MISG      30.08S
6HR MIN TEMP:  85; 6HR MAX TEMP:  93;

SIERRA VISTA   PTSUNNY   87  50  27 W13       30.14S
6HR MIN TEMP:  83; 6HR MAX TEMP:  91;

DOUGLAS        CLOUDY    90  51  26 S10G17    30.07S
6HR MIN TEMP:  87; 6HR MAX TEMP:  93;

SAFFORD        MOSUNNY  100  50  18 NW15      29.93S THUNDER
6HR MIN TEMP:  89; 6HR MAX TEMP: 102;

$$

AZZ020-021-025-026-031-280100-
SOUTHWEST ARIZONA

CITY           SKY/WX    TMP DP  RH WIND       PRES   REMARKS
YUMA           LGT RAIN 101  59  24 W5        29.82F HX 101
6HR MIN TEMP:  86; 6HR MAX TEMP: 101; 6HR PCP: TRACE;

$$

CAZ031-033-041-043-047-048-061-280100-
SOUTHERN CALIFORNIA

CITY           SKY/WX    TMP DP  RH WIND       PRES   REMARKS
DOWNTOWN L.A.  SUNNY     82  63  52 VRB3      29.93F
6HR MIN TEMP:  77; 6HR MAX TEMP:  84; 6HR PCP: TRACE;

L.A. AIRPORT   PTSUNNY   73  64  73 W12       29.95F
6HR MIN TEMP:  70; 6HR MAX TEMP:  76; 6HR PCP:  0.14;

SAN DIEGO      PTSUNNY   77  65  66 NW13      29.94S
6HR MIN TEMP:  73; 6HR MAX TEMP:  80;

BURBANK        SUNNY     92  42  17 S8        29.93F
6HR MIN TEMP:  79; 6HR MAX TEMP:  94;

ONTARIO        PTSUNNY   95  56  26 SW9       29.93F
6HR MIN TEMP:  82; 6HR MAX TEMP:  96;

RIVERSIDE      PTSUNNY   95  56  26 VRB3      29.93F
6HR MIN TEMP:  85; 6HR MAX TEMP:  95;

PALM SPRINGS   CLOUDY    96  66  37 W3        29.85F
6HR MIN TEMP:  93; 6HR MAX TEMP:  99; 6HR PCP: TRACE;

EL CENTRO NAS  MOSUNNY   99  63  30 SE9       29.81F HX 101
6HR MIN TEMP:  88; 6HR MAX TEMP: 100;

IMPERIAL       SUNNY     98  63  31 E5        29.81F HX 100
6HR MIN TEMP:  87; 6HR MAX TEMP:  99;

BLYTHE           N/A    N/A N/A N/A MISG      29.82F
NEEDLES        MOSUNNY  104  52  17 SW6       29.84F HX 101
6HR MIN TEMP:  98; 6HR MAX TEMP: 104;

$$

NVZ020-UTZ003-280100-
SOUTHERN NEVADA-UTAH

CITY           SKY/WX    TMP DP  RH WIND       PRES   REMARKS
LAS VEGAS      PTSUNNY   93  53  25 SW14G20   29.92R
6HR MIN TEMP:  92; 6HR MAX TEMP: 104;

SALT LAKE CITY MOSUNNY   98  35  11 VRB5      30.06F
6HR MIN TEMP:  90; 6HR MAX TEMP:  99;

$$

NMZ009-TXZ055-280100-
NEW MEXICO-WEST TEXAS

CITY           SKY/WX    TMP DP  RH WIND       PRES   REMARKS
ALBUQUERQUE    PTSUNNY   78  50  37 N20G26    30.21S
6HR MIN TEMP:  77; 6HR MAX TEMP:  93; 6HR PCP:  0.02;

EL PASO        CLOUDY    94  50  22 S5        30.03S
6HR MIN TEMP:  91; 6HR MAX TEMP:  99;

$$


........................KEY........................
SKY/WX - SKY CONDITION/WEATHER
TMP    - TEMPERATURE IN FAHRENHEIT
DP     - DEW POINT IN FAHRENHEIT
RH     - RELATIVE HUMIDITY IN PERCENT
WIND   - DIRECTION AND SPEED IN MILES PER HOUR (MPH)
VRB    - VARIABLE WIND DIRECTION
PRES   - MEAN SEA LEVEL PRESSURE IN INCHES OF MERCURY
         F - FALLING PRESSURE   R - RISING PRESSURE
         S - STEADY PRESSURE
VSB    - VISIBILITY IN MILES
HX     - HEAT INDEX IN FAHRENHEIT
WCI    - WIND CHILL INDEX IN FAHRENHEIT
TC     - TEMPERATURE IN CELSIUS WHICH IS ALSO KNOWN AS
         TEMPERATURE IN CENTIGRADE
AFB    - AIR FORCE BASE
         LUKE AFB IS LUKE AIR FORCE BASE
         DAVIS-MONTHAN IS DAVIS-MONTHAN AIR FORCE BASE
NAS    - NAVAL AIR STATION
         EL CENTRO NAS IS EL CENTRO NAVAL AIR STATION
N/A    - NOT AVAILABLE


USA.gov is the U.S. government's official web portal to all federal, state and local government web resources and services.